Regional Weather Roundup
Issued by NWS Sterling, VA

Home | Current Version | Previous Version | Text Only | Print | Product List | Glossary Off
Versions: 1 2 3 4 5 6 7 8 9 10 11 12 13 14 15 16 17 18 19 20 21 22 23 24 25 26 27 28

000
ASUS41 KLWX 290011
RWRLWX

REGIONAL WEATHER ROUNDUP
NATIONAL WEATHER SERVICE BALTIMORE MD/WASHINGTON DC
800 PM EDT SUN AUG 28 2016

Note: "FAIR" indicates few or no clouds below 12,000 feet
with no significant weather and/or obstructions to visibility.
 TC=TEMPERATURE CELSIUS

 * =Non NWS site. Station does not report precipitation (e.g. rain,
    snow, etc.), thunder, or fog.

DCZ001-MDZ009-015-VAZ040>042-051-053>054-290100-
WASHINGTON METRO

CITY           SKY/WX    TMP DP  RH WIND       PRES   REMARKS
WASHINGTON NAT PTCLDY    83  66  56 SE7       30.15S
DULLES         PTCLDY    81  60  48 SE6       30.15R
ANDREWS AFB    CLEAR     77  66  68 E5        30.14F
FT BELVOIR     CLEAR     78  66  66 SE1       30.14F
COLLEGE PARK*  CLEAR     79  66  65 CALM      30.15S
LEESBURG*      CLEAR     84  63  48 SE3       30.16R
GAITHERSBURG*  CLEAR     77  63  61 E3        30.20R

$$

MDZ006>007-011-014-290100-
BALTIMORE METRO

CITY           SKY/WX    TMP DP  RH WIND       PRES   REMARKS
BWI AIRPORT    PTCLDY    80  66  62 E7        30.15S
MARTIN STATE   CLEAR     82  70  65 E5        30.16S
ANNAPOLIS      CLEAR     83  67  58 E9        30.14S
FORT MEADE*    CLEAR    N/A N/A N/A CALM      30.17S

$$

MDZ012-015-019>023-290100-
MARYLAND EASTERN SHORE

CITY           SKY/WX    TMP DP  RH WIND       PRES   REMARKS
OCEAN CITY     CLEAR     77  68  73 E6        30.17S
SALISBURY      CLEAR     75  66  73 E3        30.16S
BAY BRIDGE AP* CLEAR     81  64  57 E7        30.15S
CAMBRIDGE*     CLEAR     75  63  64 E3        30.15S
EASTON*        PTCLDY    79  68  69 SE5       30.19F

$$

MDZ017>025-290100-
SOUTHERN MARYLAND

CITY           SKY/WX    TMP DP  RH WIND       PRES   REMARKS
PATUXENT RIVER CLEAR     79  61  53 E9        30.14S
ST INIGOES     CLEAR     77  67  71 E3        30.14S
LEONARDTOWN*   CLEAR     73  64  73 CALM      30.17R

$$

MDZ003>005-290100-
NORTH CENTRAL MARYLAND

CITY           SKY/WX    TMP DP  RH WIND       PRES   REMARKS
FREDERICK*     CLEAR     81  68  65 CALM      30.17S
HAGERSTOWN APT CLEAR     84  65  52 S6        30.14F

$$

MDZ501>502-290100-
WESTERN MARYLAND

CITY           SKY/WX    TMP DP  RH WIND       PRES   REMARKS
OAKLAND*       CLEAR     72  68  88 S5        30.25F
CUMBERLAND*    CLEAR     84  63  48 CALM      30.17R

$$

VAZ025>031-290100-
SHENANDOAH VALLEY

CITY           SKY/WX    TMP DP  RH WIND       PRES   REMARKS
WINCHESTER*    CLEAR     79  66  65 CALM      30.16R
FRONT ROYAL*   FAIR      77  68  73 CALM      30.14S
LURAY*         FAIR      79  66  65 N3        30.16S
NEW MARKET*    FAIR      75  69  81 CALM      30.14S
STAUNTON*      CLEAR     79  65  61 CALM      30.20S
WAYNESBORO*    FAIR      76  63  65 CALM      30.20R

$$

WVZ021-048>050-054>055-290100-
EASTERN WEST VIRGINIA PANHANDLE

CITY           SKY/WX    TMP DP  RH WIND       PRES   REMARKS
MARTINSBURG    CLEAR     80  66  62 E5        30.14S
PETERSBURG*    CLEAR     85  69  59 SE3       30.14R

$$

VAZ036>039-050-290100-
CENTRAL FOOTHILLS

CITY           SKY/WX    TMP DP  RH WIND       PRES   REMARKS
CHARLOTTESVILL CLEAR     83  67  58 SE5       30.15S
CULPEPER*      CLEAR     76  70  81 CALM      30.15S
ORANGE*          N/A     77  72  83 CALM      30.17R
GORDONSVILLE*  FAIR      75  72  88 CALM      30.15R
WARRENTON*     FAIR      76  65  68 CALM      30.15R

$$

VAZ055>057-290100-
NORTH AND CENTRAL PIEDMONT

CITY           SKY/WX    TMP DP  RH WIND       PRES   REMARKS
FREDERICKSBRG*   N/A     80  68  68 CALM      30.13S
STAFFORD*      CLEAR     76  67  72 CALM      30.18S

$$

NCZ024-NYZ072-PAZ021-071-VAZ022-071-290100-
OTHER REGIONAL OBSERVATIONS

CITY           SKY/WX    TMP DP  RH WIND       PRES   REMARKS
NEW YORK CITY  CLEAR     77  65  66 CALM      30.18F
PHILADELPHIA   PTCLDY    83  65  54 S12       30.15S
PITTSBURGH     CLOUDY    80  63  55 E6G17     30.19R
ROANOKE        PTCLDY    84  54  35 SE5       30.19R
RICHMOND       PTCLDY    78  67  68 NE8       30.13F
RALEIGH        CLOUDY    83  66  56 E7        30.11S

$$

ANZ530>537-290100-
MARINE OBSERVATIONS

STATION/POSITION TIME  TEMP    WIND        PRES
                       AIR SEA DIR/SP/G
                 (UTC) (F)     (DEG/KT/KT) (MB)
THOMAS PT LIGHT  0000   82 84  110/ 14/ 16 1021.8F
BALT KEY BRIDGE  2348   83     100/  8/  9   N/A
COVE POINT       2348   82     130/ 11/ 14   N/A
LEWISETTA        2348   82 85  160/ 10/ 12   N/A
SOLOMONS ISLAND  2348   83 84  100/ 10/ 12   N/A
PINEY POINT      2348          110/  9/ 10   N/A

$$





USA.gov is the U.S. government's official web portal to all federal, state and local government web resources and services.